Find Local Weather

World > North America > United States > Pennsylvania

Tunkhannock, Pennsylvania Regional Weather

Lat: 41.54N, Lon: 75.95W
Wx Zone: PAZ043
Warning FLW WEATHER ALERT - (More Info. Click Here) Warning
Feedback
Expires:201808171400;;202151
ASUS41 KPHI 171313
RWRPHI

REGIONAL WEATHER ROUNDUP
NATIONAL WEATHER SERVICE MOUNT HOLLY NJ
900 AM EDT FRI AUG 17 2018

NOTE:  "FAIR" INDICATES FEW OR NO CLOUDS BELOW 12,000 FEET WITH NO
SIGNIFICANT WEATHER AND/OR OBSTRUCTIONS TO VISIBILITY.

 * = STATION DOES NOT REPORT PRECIPITATION (E.G. RAIN, SNOW, ETC.) 
        OR FOG.


PAZ043-044-047-054-055-060>062-066>071-171400-
EASTERN PENNSYLVANIA
  
CITY           SKY/WX    TMP DP  RH WIND       PRES   REMARKS
PHILADELPHIA   PTSUNNY   81  75  82 S5        30.08S                  
NORTH PHILA    FAIR      84  74  71 VRB3      30.09F HX  91           
BLUE BELL*     FAIR      79  73  83 SW3       30.10F                  
DOYLESTOWN     FAIR      79  74  84 VRB3      30.09S                  
QUAKERTOWN*    SUNNY     75  75 100 CALM      30.10S                  
PERKASIE*      FAIR      77  77 100 S3        30.11S                  
POTTSTOWN      LGT RAIN  76  74  93 CALM      30.10F FOG              
LANCASTER      PTSUNNY   79  75  87 CALM      30.08S FOG              
COATESVILLE    DRIZZLE   77  75  94 CALM      30.11F                  
READING        FAIR      79  75  87 CALM      30.07S                  
ALLENTOWN      FAIR      76  71  85 CALM      30.09S HAZE             
MOUNT POCONO   CLOUDY    72  69  90 W5        30.16R                  
HAZLETON       LGT RAIN  70  68  94 MISG      30.16F                  
LEHIGHTON      LGT RAIN  70  70 100 CALM      30.10S                  
WILKES BARRE   RAIN      72  69  90 SW3       30.12R FOG              

$$

SKY/WX - Weather  TMP - Temperature  DP - Dewpoint  RH - Relative Humidity
WIND - Wind Direction/Speed PRES - Barometric Pressure